sat.trackr.live / text

‹ back to catalog

STARLINK-30890

NORAD 58362 · 2023-177M

PAYLOAD ACTIVE UNKNOWN

§ Identity

Operator
Country
US
Launch date
2023-11-18
Launch site
AFETR
Launch vehicle
Mass (kg)
RCS (m²)

Purposes: comms

External: N2YO · Heavens-Above · Gunter

§ Orbital elements

Epoch: 2026-09-19T06:28:45.585984Z

Period
94.27 min
Inclination
43.0031°
Eccentricity
0.0001263
Mean motion
15.27581639 rev/d
Perigee alt
482.2 km
Apogee alt
483.9 km
Semi-major
6,861.2 km
B*
2.5401e-5
RAAN
337.3127°
Arg perigee
264.5050°
Mean anomaly
95.5658°
Rev number
15,778

§ Raw data

STARLINK-308901 58362U 23177M   26262.26997206  .00000437  00000+0  25401-4 0  99922 58362  43.0031 337.3127 0001263 264.5050  95.5658 15.27581639157780

JSON: /api/v1/satellites/58362 · /tle

For live sub-satellite position, see the globe view (requires WebGL).

§ Visibility from observer

Set your observer location to see the next 7 days of passes ≥ 10°. The values pass through the URL so the page stays shareable.

No JS? Fill the form by hand. The geolocation button needs JavaScript.